Saint Martin Island, Sint Maarten

2:32 PM AST on December 07, 2016 (GMT -0400)
Princess Juliana International

Weather History for TNCM - April, 2013

Change the Weather History Date:

Saturday, April 27, 2013

  Actual Average Record
Temperature  
Mean Temperature 81 °F -  
Max Temperature 85 °F 84 °F 87 °F (2005)
Min Temperature 77 °F 75 °F 73 °F (2001)
Cooling Degree Days 16    
Growing Degree Days 31 (Base 50)    
Moisture  
Dew Point 69 °F    
Average Humidity 68    
Maximum Humidity 78    
Minimum Humidity 54    
Precipitation  
Precipitation 0.00 in 0.12 in - ()
Sea Level Pressure  
Sea Level Pressure 29.96 in    
Wind  
Wind Speed 8 mph ()    
Max Wind Speed 10 mph    
Max Gust Speed 23 mph    
Visibility 7.2 miles    
Events Tornado    
Averages and records for this station are not official NWS values.
T = Trace of Precipitation, MM = Missing Value Source: Averaged Metar Reports

Daily Weather History Graph

Daily Weather History Graph

Search for Another Location

Airport or City:

Trip Planner

Search our weather history database for the weather conditions in past years. The results will help you decide how hot, cold, wet, or windy it might be!

Date:

Astronomy

Apr. 27, 2013 Rise Set
Actual Time 5:47 AM AST 6:32 PM AST
Civil Twilight 5:25 AM AST 6:55 PM AST
Nautical Twilight 4:58 AM AST 7:21 PM AST
Astronomical Twilight 4:31 AM AST 7:48 PM AST
Moon 8:42 PM AST (4/27) 7:15 AM AST (4/27)
Length of Visible Light 13h 29m
Length of Day
12h 44m
Waning Gibbous, 95% of the Moon is Illuminated
Apr 27
Waning Gibbous
May 2
Last Quarter
May 9
New
May 18
First Quarter
May 25
Full

Hourly Weather History & Observations

Time (AST) Temp. Heat Index Dew Point Humidity Pressure Visibility Wind Dir Wind Speed Gust Speed Precip Events Conditions
12:00 AM 78.8 °F - 69.8 °F 74% 30.01 in 6.2 mi East 8.1 mph - N/A   Scattered Clouds
1:00 AM 78.8 °F - 69.8 °F 74% 29.98 in 6.2 mi ESE 9.2 mph - N/A   Scattered Clouds
2:00 AM 78 °F - 70 °F 69% 29.97 in 19 mi ESE 8.1 mph - -   Partly Cloudy
2:00 AM 77.0 °F - 69.8 °F 78% 29.95 in 6.2 mi ESE 8.1 mph - N/A   Scattered Clouds
3:00 AM 77.0 °F - 69.8 °F 78% 29.95 in 6.2 mi ESE 8.1 mph - N/A   Scattered Clouds
4:00 AM 77.0 °F - 69.8 °F 78% 29.95 in 6.2 mi ESE 8.1 mph - N/A   Scattered Clouds
5:00 AM 78 °F - 70 °F 70% 29.96 in 25 mi ESE 6.9 mph - -   Partly Cloudy
5:00 AM 77.0 °F - 69.8 °F 78% 29.95 in 6.2 mi ESE 6.9 mph - N/A   Scattered Clouds
6:00 AM 77.0 °F - 69.8 °F 78% 29.95 in 6.2 mi East 8.1 mph - N/A   Mostly Cloudy
7:00 AM 78.8 °F - 69.8 °F 74% 29.95 in 6.2 mi ESE 9.2 mph - N/A   Scattered Clouds
8:00 AM 80 °F - 70 °F 65% 29.98 in 22 mi ESE 10.4 mph - -  
8:00 AM 80.6 °F 83.9 °F 69.8 °F 70% 29.98 in 6.2 mi ESE 10.4 mph - N/A   Scattered Clouds
9:00 AM 82.4 °F 86.3 °F 69.8 °F 66% 29.98 in 6.2 mi ESE 9.2 mph - N/A   Scattered Clouds
10:00 AM 82.4 °F 86.3 °F 69.8 °F 66% 30.01 in 6.2 mi ESE 9.2 mph - N/A   Scattered Clouds
11:00 AM 83 °F - 70 °F 57% 29.99 in 22 mi SE 10.4 mph - -   Partly Cloudy
11:00 AM 82.4 °F 86.3 °F 69.8 °F 66% 29.98 in 6.2 mi ESE 9.2 mph - N/A   Scattered Clouds
12:00 PM 84.2 °F 88.4 °F 69.8 °F 62% 29.98 in 6.2 mi ESE 10.4 mph - N/A   Scattered Clouds
1:00 PM 84.2 °F 88.4 °F 69.8 °F 62% 29.95 in 6.2 mi ESE 9.2 mph - N/A   Scattered Clouds
2:00 PM 83 °F - 69 °F 54% 29.96 in 25 mi ESE 8.1 mph - - Tornado Funnel Cloud
2:00 PM 84.2 °F 87.3 °F 68.0 °F 58% 29.95 in 6.2 mi ESE 8.1 mph - N/A Tornado Mostly Cloudy
3:00 PM 84.2 °F 87.3 °F 68.0 °F 58% 29.92 in 6.2 mi East 8.1 mph - N/A   Mostly Cloudy
4:00 PM 82.4 °F 86.3 °F 69.8 °F 66% 29.92 in 6.2 mi East 10.4 mph - N/A   Mostly Cloudy
5:00 PM 81 °F - 69 °F 60% 29.94 in 25 mi East 10.4 mph - -   Mostly Cloudy
5:00 PM 80.6 °F 83.9 °F 69.8 °F 70% 29.92 in 6.2 mi East 10.4 mph - N/A   Mostly Cloudy
6:00 PM 80.6 °F 83.9 °F 69.8 °F 70% 29.92 in 6.2 mi East 9.2 mph - N/A   Partly Cloudy
7:00 PM 78.8 °F - 69.8 °F 74% 29.95 in 6.2 mi ENE 10.4 mph 23.0 mph N/A   Scattered Clouds
8:00 PM 78 °F - 69 °F 67% 29.97 in 25 mi East 10.4 mph - -   Scattered Clouds
8:00 PM 78.8 °F - 69.8 °F 74% 29.95 in 6.2 mi East 10.4 mph - N/A   Partly Cloudy
9:00 PM 78.8 °F - 68.0 °F 69% 29.98 in 6.2 mi East 9.2 mph - N/A   Partly Cloudy
10:00 PM 78.8 °F - 68.0 °F 69% 29.98 in 6.2 mi East 8.1 mph - N/A   Partly Cloudy
11:00 PM 78 °F - 68 °F 63% 29.99 in 19 mi ESE 8.1 mph - -   Scattered Clouds
11:00 PM 78.8 °F - 68.0 °F 69% 29.98 in 6.2 mi East 6.9 mph - N/A   Partly Cloudy